Simultaneous Nadir Overpasses (SNOs) Predictions

Prediction of SNOs between NPP and METOP-C Satellite Orbit:

Table of predicted SNOs for the next 14.0 days since TLE Epoch: 10/21/2023
Index Date (NPP) Time (NPP) Lat,Lon (NPP) SZA (NPP ) Date (METOP-C) Time (METOP-C) Lat,Lon (METOP-C) SZA (METOP-C ) Distance(km) Time Diff (sec)
1 10/26/2023 18:24:37 73.47,-105.64 85.99 10/26/2023 18:25:45 73.40,-103.34 85.87 73.39 68
2 10/26/2023 19:15:20 -73.42, 61.78 94.05 10/26/2023 19:16:29 -73.35, 63.86 94.18 66.67 69
3 10/26/2023 20:06:01 73.17,-130.35 85.70 10/26/2023 20:07:12 73.13,-129.28 85.63 34.81 71
4 10/26/2023 20:56:44 -73.13, 37.06 94.34 10/26/2023 20:57:56 -73.08, 37.92 94.42 28.35 72
5 10/26/2023 21:47:26 72.92,-155.19 85.46 10/26/2023 21:48:38 72.90,-155.10 85.44 3.59 72
6 10/26/2023 22:38:09 -72.88, 12.22 94.58 10/26/2023 22:39:21 -72.90, 12.22 94.56 2.87 72
7 10/26/2023 23:28:55 72.88, 179.53 85.44 10/26/2023 23:30:00 72.88, 179.51 85.44 1.06 65
8 10/27/2023 00:19:38 -72.88, -13.16 94.55 10/27/2023 00:20:42 -72.88, -13.17 94.55 0.26 64
9 10/27/2023 01:10:24 72.88, 154.15 85.47 10/27/2023 01:11:21 72.86, 154.13 85.45 1.97 57
10 10/27/2023 02:01:08 -72.88, -38.54 94.52 10/27/2023 02:02:04 -72.86, -38.55 94.55 2.47 56
11 10/27/2023 02:51:54 72.88, 128.77 85.49 10/27/2023 02:52:42 72.89, 128.85 85.50 2.98 48
12 10/27/2023 03:42:38 -72.89, -63.92 94.49 10/27/2023 03:43:25 -72.89, -63.83 94.50 3.27 47
13 10/27/2023 04:33:24 72.89, 103.39 85.52 10/27/2023 04:34:04 72.87, 103.47 85.50 3.16 40
14 10/27/2023 05:24:07 -72.84, -89.20 94.52 10/27/2023 05:24:47 -72.87, -89.21 94.49 3.43 40
15 10/27/2023 06:14:53 72.84, 78.11 85.50 10/27/2023 06:15:26 72.85, 78.09 85.51 1.55 33
16 10/27/2023 07:05:37 -72.84,-114.58 94.49 10/27/2023 07:06:09 -72.85,-114.59 94.49 0.81 32
17 10/27/2023 07:56:23 72.84, 52.73 85.52 10/27/2023 07:56:48 72.83, 52.70 85.51 1.64 25
18 10/27/2023 08:47:07 -72.85,-139.96 94.46 10/27/2023 08:47:31 -72.83,-139.98 94.48 1.97 24
19 10/27/2023 09:37:53 72.85, 27.35 85.55 10/27/2023 09:38:09 72.86, 27.43 85.56 3.00 16
20 10/27/2023 10:28:37 -72.85,-165.35 94.44 10/27/2023 10:28:52 -72.86,-165.25 94.43 3.24 15
21 10/27/2023 11:19:23 72.85, 1.97 85.58 10/27/2023 11:19:31 72.84, 2.04 85.57 2.79 8
22 10/27/2023 12:10:07 -72.85, 169.27 94.41 10/27/2023 12:10:14 -72.84, 169.36 94.43 3.48 7
23 10/27/2023 13:00:52 72.80, -23.31 85.55 10/27/2023 13:00:53 72.82, -23.34 85.57 2.01 1
24 10/27/2023 13:51:36 -72.81, 144.00 94.44 10/27/2023 13:51:36 -72.82, 143.98 94.42 1.33 0
25 10/27/2023 14:42:22 72.81, -48.69 85.58 10/27/2023 14:42:15 72.80, -48.72 85.57 1.43 7
26 10/27/2023 15:33:06 -72.81, 118.61 94.41 10/27/2023 15:32:58 -72.80, 118.60 94.42 1.52 8
27 10/27/2023 16:23:52 72.81, -74.07 85.61 10/27/2023 16:23:36 72.83, -74.00 85.63 3.09 16
28 10/27/2023 17:14:36 -72.81, 93.23 94.38 10/27/2023 17:14:19 -72.83, 93.32 94.37 3.30 17
29 10/27/2023 18:05:22 72.81, -99.46 85.64 10/27/2023 18:04:58 72.81, -99.39 85.63 2.47 24
30 10/27/2023 18:56:06 -72.82, 67.85 94.35 10/27/2023 18:55:41 -72.81, 67.94 94.36 3.15 25
31 10/27/2023 19:46:51 72.77,-124.73 85.61 10/27/2023 19:46:20 72.79,-124.77 85.63 2.45 31
32 10/27/2023 20:37:35 -72.77, 42.57 94.38 10/27/2023 20:37:03 -72.79, 42.56 94.36 1.82 32
33 10/27/2023 21:28:21 72.77,-150.12 85.64 10/27/2023 21:27:42 72.76,-150.15 85.64 1.34 39
34 10/27/2023 22:19:05 -72.77, 17.19 94.35 10/27/2023 22:18:25 -72.77, 17.17 94.36 1.15 40
35 10/27/2023 23:09:51 72.77,-175.50 85.66 10/27/2023 23:09:03 72.79,-175.43 85.69 3.24 48
36 10/28/2023 00:00:35 -72.78, -8.19 94.32 10/27/2023 23:59:46 -72.80, -8.11 94.30 3.43 49
37 10/28/2023 00:51:21 72.78, 159.12 85.69 10/28/2023 00:50:25 72.77, 159.19 85.69 2.23 56
38 10/28/2023 01:42:05 -72.78, -33.57 94.30 10/28/2023 01:41:08 -72.77, -33.49 94.30 2.89 57
39 10/28/2023 02:32:50 72.73, 133.84 85.67 10/28/2023 02:31:47 72.75, 133.80 85.69 2.85 63
40 10/28/2023 03:23:34 -72.73, -58.85 94.32 10/28/2023 03:22:30 -72.75, -58.87 94.30 2.28 64
41 10/28/2023 04:14:20 72.73, 108.46 85.69 10/28/2023 04:13:09 72.73, 108.42 85.70 1.36 71
42 10/28/2023 05:05:04 -72.74, -84.23 94.29 10/28/2023 05:03:52 -72.73, -84.25 94.29 0.90 72
43 10/28/2023 05:55:47 72.58, 83.39 85.56 10/28/2023 05:54:34 72.56, 82.73 85.56 22.40 73
44 10/28/2023 06:46:30 -72.54,-109.20 94.48 10/28/2023 06:45:17 -72.56,-109.95 94.44 25.04 73
45 10/28/2023 07:37:11 72.28, 58.62 85.27 10/28/2023 07:36:01 72.28, 56.84 85.32 60.42 70
46 10/28/2023 08:27:54 -72.24,-133.98 94.77 10/28/2023 08:26:45 -72.23,-135.93 94.72 66.44 69



Historial Predications of SNOs between NPP and METOP-C
